Location: Belvedere Heights
(33.9836°N, 117.3109°W)
Time: 08:06:58
(UTC+00:00)

Cosmos 2154 Rocket - Pass Details

Date: 21 March 2023
Orbit: 967 x 995 km, 82.9° (Epoch: 01 June)

Event Time Altitude Azimuth Distance (km) Brightness Sun altitude
Rises 12:09:24 0° 181° (S) 3,693 6.9 -21.8°
Reaches altitude 10° 12:11:55 10° 180° (S) 2,745 6.2 -21.3°
Maximum altitude 12:18:13 81° 94° (E) 1,004 4.1 -20.0°
Drops below altitude 10° 12:24:31 10° 8° (N) 2,742 6.6 -18.8°
Sets 12:27:02 0° 8° (N) 3,690 7.3 -18.2°
